Location: Piotrkow Trybunalski
(51.4000°N, 19.6830°E)
Time: 05:52:14
(UTC+02:00)

STRAND 1 - Pass Details

Date: 02 March 2024
Orbit: 764 x 779 km, 98.4° (Epoch: 24 April)

Event Time Altitude Azimuth Distance (km) Brightness Sun altitude
Rises 19:11:02 0° 10° (N) 3,269 ? -17.4°
Reaches altitude 10° 19:13:27 10° 4° (N) 2,335 ? -17.8°
Maximum altitude 19:18:16 43° 294° (WNW) 1,084 ? -18.5°
Drops below altitude 10° 19:23:04 10° 225° (SW) 2,310 ? -19.2°
Sets 19:25:26 0° 218° (SW) 3,231 ? -19.6°
